This is the latest recevied weather packets stored in our database for station/object N1OF. If no packets are shown the sender has not sent any weather packets the latest 10 day(s).
| Time | Temp. | Humidity | Pressure | Rain* | Wind** | Luminosity | Snow |
|---|---|---|---|---|---|---|---|
| 1777926958 | 25° C | 45% | 1003.9 hPa | 0 mm | - | - | - |
| 1777926655 | 25° C | 45% | 1003.9 hPa | 0 mm | - | - | - |
| 1777926351 | 23.89° C | 46% | 1003.8 hPa | 0 mm | - | - | - |
| 1777926048 | 24.44° C | 48% | 1003.6 hPa | 0 mm | - | - | - |
| 1777925745 | 24.44° C | 45% | 1003.9 hPa | 0 mm | - | - | - |
| 1777925443 | 24.44° C | 46% | 1003.8 hPa | 0 mm | - | - | - |
| 1777925138 | 25° C | 45% | 1003.8 hPa | 0 mm | - | - | - |
| 1777924836 | 25.56° C | 44% | 1003.9 hPa | 0 mm | - | - | - |
| 1777924532 | 25° C | 45% | 1003.9 hPa | 0 mm | - | - | - |
| 1777924228 | 25° C | 45% | 1004.1 hPa | 0 mm | - | - | - |
| 1777923925 | 25° C | 44% | 1003.8 hPa | 0 mm | - | - | - |
| 1777923620 | 24.44° C | 44% | 1004.2 hPa | 0 mm | - | - | - |
| 1777923317 | 24.44° C | 44% | 1004.3 hPa | 0 mm | - | - | - |
| 1777923016 | 23.89° C | 45% | 1004.2 hPa | 0 mm | - | - | - |
| 1777922714 | 23.33° C | 47% | 1004.4 hPa | 0 mm | - | - | - |
| 1777922412 | 23.89° C | 47% | 1004.2 hPa | 0 mm | - | - | - |
| 1777922109 | 23.33° C | 48% | 1004.6 hPa | 0 mm | - | - | - |
| 1777921805 | 23.89° C | 47% | 1004.7 hPa | 0 mm | - | - | - |
| 1777921501 | 23.89° C | 47% | 1004.7 hPa | 0 mm | - | - | - |
| 1777921197 | 23.89° C | 47% | 1004.8 hPa | 0 mm | - | - | - |
| 1777920895 | 23.89° C | 47% | 1005 hPa | 0 mm | - | - | - |
| 1777920591 | 23.89° C | 48% | 1004.9 hPa | 0 mm | - | - | - |
| 1777920287 | 23.89° C | 47% | 1005 hPa | 0 mm | - | - | - |
| 1777919982 | 23.33° C | 47% | 1004.9 hPa | 0 mm | - | - | - |
| 1777919680 | 22.78° C | 48% | 1005.3 hPa | 0 mm | - | - | - |
* Rain latest hour (hover to see other rain measurements)
** Current wind speed in m/s (hover to see current wind gust speed)